Satellite-Ground Cal/Val Site Overpasses Predictions

Prediction of Satellite NPP Overpassing Cal/Val Site: Antarctic Dome C

Ground Cal/Val Site Location: Latitude: -75.10, Longitude: 123.35; Satellite-Ground Site NADIR distance within 100 km.

Table of predicted overpasses for the next 14.0 days since TLE Epoch: 6/4/2022
Interval Starting Time Ending Time Minimum Distance Time Minimum Distance (km)
1 06/04/2022 14:54:27 06/04/2022 14:54:56 06/04/2022 14:54:42 17.60
2 06/05/2022 14:35:47 06/05/2022 14:36:00 06/05/2022 14:35:53 89.14
3 06/06/2022 07:37:20 06/06/2022 07:37:47 06/06/2022 07:37:33 31.69
4 06/07/2022 07:18:37 06/07/2022 07:18:54 06/07/2022 07:18:45 78.56
5 06/09/2022 15:00:53 06/09/2022 15:01:17 06/09/2022 15:01:05 55.14
6 06/10/2022 14:42:04 06/10/2022 14:42:29 06/10/2022 14:42:17 53.77
7 06/11/2022 07:43:46 06/11/2022 07:44:07 06/11/2022 07:43:57 67.54
8 06/12/2022 07:24:55 06/12/2022 07:25:21 06/12/2022 07:25:08 40.48
9 06/14/2022 15:07:23 06/14/2022 15:07:33 06/14/2022 15:07:28 93.41
10 06/15/2022 14:48:25 06/15/2022 14:48:54 06/15/2022 14:48:39 17.77
